Flag for Germany Weather past 2 weeks in Ansbach, Bavaria, Germany

Now
30 °F

Light snow. Ice fog.


Feels Like: 23 °F
Forecast: 26 / 33 °F
Wind: 8 mph from Southwest

Location: Ansbach / Katterbach

Current Time: Jan 31, 2015 at 10:42:24 PM

Latest Report: Jan 31, 2015 at 9:58 PM


Visibility: 5 mi

Pressure: 29.22 "Hg

Humidity: 100%

Dew point: 30 °F

Location of AnsbachLocation

Historic Weather in Ansbach — Graph

°F

Ansbach temperature yesterday

Maximum temperature yesterday: 34 °F (at 1:58 AM)
Minimum temperature yesterday: 30 °F (at 6:58 PM)
Average temperature yesterday: 31 °F

Past Weeks' High & Low Weather Summary

 TemperatureHumidityPressure
High40 °F (Jan 16, 11:58 PM)100% (Jan 16, 11:58 PM)30.47 "Hg (Jan 16, 11:58 PM)
Low27 °F (Jan 21, 2:58 AM)80% (Jan 29, 11:58 AM)28.72 "Hg (Jan 30, 2:59 AM)
Average32 °F99%29.90 "Hg
* Reported Jan 16 8:58 PM — Jan 31 8:58 PM, Ansbach, Weather by CustomWeather, © 2014

Note: Actual official high and low records may vary slightly from our data, if they occured in-between our weather recording intervals... More about our weather records

Advertising

Ansbach weather history for previous 24 hours

 ConditionsComfort  
Time TempWeatherWind HumidityBarometerVisibility
8:58 PM
Jan 31
31 °FPassing clouds.6 mph97%29.22 "HgN/A
7:58 PM30 °FPartly cloudy.2 mph98%29.21 "HgN/A
6:58 PM30 °FPassing clouds.5 mph100%29.20 "HgN/A
5:58 PM30 °FClear.5 mph93%29.19 "HgN/A
4:58 PM32 °FOvercast.5 mph87%29.18 "HgN/A
3:58 PM33 °FOvercast.7 mph89%29.17 "HgN/A
2:58 PM32 °FOvercast.8 mph93%29.17 "HgN/A
1:58 PM32 °FMostly cloudy.9 mph93%29.15 "HgN/A
12:58 PM32 °FOvercast.10 mph93%29.15 "HgN/A
11:58 AM32 °FLight snow. Overcast.16 mph91%29.13 "HgN/A
10:58 AM31 °FOvercast.14 mph93%29.13 "HgN/A
9:58 AM30 °FOvercast.12 mph96%29.11 "HgN/A
8:58 AM29 °FLight snow. Ice fog.10 mph100%29.10 "Hg6 mi
7:58 AM30 °FLight snow. Partly sunny.15 mph93%29.08 "HgN/A
6:58 AM30 °FMostly cloudy.18 mph93%29.06 "HgN/A
5:58 AM30 °FOvercast.9 mph100%29.05 "HgN/A
4:58 AM29 °FOvercast.8 mph100%29.05 "HgN/A
3:58 AM28 °FMostly cloudy.7 mph100%29.05 "HgN/A
3:00 AM28 °FMostly cloudy.8 mph100%28.95 "HgN/A
1:58 AM28 °FPassing clouds.6 mph100%29.03 "HgN/A
12:58 AM28 °FPassing clouds.7 mph100%29.01 "HgN/A
11:58 PM
Jan 30
30 °FMostly cloudy.8 mph100%29.00 "HgN/A
10:58 PM30 °FMostly cloudy.8 mph100%28.99 "HgN/A
Weather by CustomWeather, © 2014

See weather overviewHow to use our weather pages